Location: Ernez
(36.4595°N, 29.8755°E)
Time: 08:08:48
(UTC+00:00)

Cosmos 2221 Rocket - Pass Details

Date: 13 November 2025
Orbit: 615 x 642 km, 82.5° (Epoch: 04 December)

Event Time Altitude Azimuth Distance (km) Brightness Sun altitude
Rises 15:22:29 0° 350° (N) 2,936 6.9 -6.3°
Reaches altitude 10° 15:24:44 10° 348° (NNW) 2,020 6.1 -6.8°
Maximum altitude 15:29:11 71° 266° (W) 665 3.9 -7.6°
Drops below altitude 10° 15:33:35 10° 182° (S) 1,988 6.4 -8.5°
Sets 15:35:47 0° 180° (S) 2,885 7.2 -8.9°
